STARLINK-31869

Last updated on Sat Aug 03 2024 00:02:04 GMT+0000 (Coordinated Universal Time)

1 60196U 24124P 24215.29370099 -.00000999 00000+0 -14994-4 0 9997 2 60196 53.1620 166.0763 0002169 96.7653 263.3598 15.39590820 4691
UTC large
Height (km)
Speed (km/s)
/
Latitude / Longitude
Inclination (degrees)
Orbital Period (minutes)
Azimuth
Elevation
Range (km)
Doppler Factor

Next 0 passes for location: London (51.5072 / 0.1276)

Sorry there are no passes over London.